Find Starlink 37303

NORAD ID: 68710 Int'l Des: 2026-081 Owner: SPXS Country: US Constellation: starlink operational
LEOCIRCULAR

リアルタイム位置

3D地球を読み込み中...

Starlink 37303について

説明を読み込み中...

次回通過

Passes for default location (London). Set your location on the main map for personalized predictions.

高度履歴

Loading altitude history...

軌道要素

1 68710C 26081L 26105.38798611 .00611150 00000+0 78928-3 0 1055
2 68710 53.1627 237.9752 0007373 302.6929 40.5780 16.06051268 14
Epoch: Apr 15, 2026 • Age: 24 hours

現在のステータス

高度 268.9 km
速度 7.75 km/s
衛星直下点 -51.51°S, 145.24°E
打ち上げ日 Apr 14, 2026
運用期間 1 days
タイプ internet

技術仕様

分類 Payload
質量 575.00 kg
乾燥質量 530.00 kg
総質量 575.00 kg
長さ 0.30 m
直径 4.10 m
スパン 29.00 m
形状 Box + pan
製造者 SPXS
バスタイプ Starlink V2MO
フェーズステータス In Orbit
所有者/国 SPXS/US

Most Searched